This is the latest recevied weather packets stored in our database for station/object W4BOD. If no packets are shown the sender has not sent any weather packets the latest 10 day(s).
| Time | Temp. | Humidity | Pressure | Rain* | Wind** | Luminosity | Snow |
|---|---|---|---|---|---|---|---|
| 1777739139 | 18.33° C | 44% | 1017.5 hPa | 0 mm | - | 203 W/m² | - |
| 1777738836 | 18.33° C | 45% | 1017.4 hPa | 0 mm | - | 901 W/m² | - |
| 1777738532 | 17.22° C | 48% | 1017.7 hPa | 0 mm | - | 870 W/m² | - |
| 1777738230 | 17.22° C | 46% | 1017.5 hPa | 0 mm | - | 874 W/m² | - |
| 1777737928 | 17.78° C | 48% | 1017.7 hPa | 0 mm | - | 855 W/m² | - |
| 1777737626 | 17.78° C | 45% | 1017.7 hPa | 0 mm | - | 842 W/m² | - |
| 1777737325 | 17.78° C | 46% | 1017.7 hPa | 0 mm | - | 830 W/m² | - |
| 1777737021 | 16.67° C | 48% | 1017.6 hPa | 0 mm | - | 827 W/m² | - |
| 1777736716 | 17.78° C | 46% | 1017.6 hPa | 0 mm | - | 815 W/m² | - |
| 1777736072 | 17.22° C | 49% | 1017.7 hPa | 0 mm | - | 798 W/m² | - |
| 1777735769 | 16.67° C | 50% | 1017.6 hPa | 0 mm | - | 791 W/m² | - |
| 1777735466 | 16.67° C | 49% | 1017.5 hPa | 0 mm | - | 778 W/m² | - |
| 1777735164 | 16.11° C | 50% | 1017.7 hPa | 0 mm | - | 770 W/m² | - |
| 1777734860 | 16.11° C | 51% | 1017.4 hPa | 0 mm | - | 757 W/m² | - |
| 1777734558 | 16.11° C | 51% | 1017.6 hPa | 0 mm | - | 746 W/m² | - |
| 1777734255 | 16.11° C | 49% | 1017.5 hPa | 0 mm | - | 733 W/m² | - |
| 1777733951 | 16.11° C | 53% | 1017.7 hPa | 0 mm | - | 712 W/m² | - |
| 1777733648 | 15.56° C | 53% | 1017.5 hPa | 0 mm | - | 700 W/m² | - |
| 1777733344 | 15.56° C | 51% | 1017.6 hPa | 0 mm | - | 691 W/m² | - |
| 1777733041 | 16.11° C | 53% | 1017.5 hPa | 0 mm | - | 674 W/m² | - |
| 1777732737 | 16.11° C | 53% | 1017.6 hPa | 0 mm | - | 659 W/m² | - |
| 1777732434 | 16.11° C | 55% | 1017.5 hPa | 0 mm | - | 638 W/m² | - |
| 1777732132 | 15° C | 54% | 1017.4 hPa | 0 mm | - | 631 W/m² | - |
| 1777731828 | 15.56° C | 54% | 1017.6 hPa | 0 mm | - | 609 W/m² | - |
| 1777731525 | 15.56° C | 54% | 1017.6 hPa | 0 mm | - | 593 W/m² | - |
* Rain latest hour (hover to see other rain measurements)
** Current wind speed in m/s (hover to see current wind gust speed)